STARLINK-11625, 63109

Orbit data source: Space-Track

STARLINK-11625, 63109 is a payload satellite owned by SpaceX/Seattle (US) in LEO that was launched on Thu, 27 Feb 2025 UTC via an FALCON 9 launch vehicle from the Air Force Eastern Test Range (AFETR). Payload-class satellites include a variety of spacecraft equipped with specific instruments for various scientific and technological missions. These include communications satellites like Starlink; space stations such as the ISS; scientific satellites like the Hubble; Earth observation satellites from companies like Planet Labs, Umbra, and HawkEye 360; GPS; miniature CubeSats for education and research; and military/defense satellites.

Loading next visibility...
Identifier
63109, 2025-039F
Orbit
LEO
Country
Flag of USUS
Related business
Manufacturer
SpaceX/Seattle
Mission
Operational Commercial Communications
Bus & Motor
STARLINK V2MD, Unknown motor
Mass
960 kg wet, ~910 kg dry
Launch date (UTC)
2025-02-27 (8 months ago)
Launch vehicle
FALCON 9
Launch site
Air Force Eastern Test Range (AFETR)
Object type
Payload
Rocket body
Debris
Shape & HBR
Box + 2 Pan, 18.1 m
Radar Cross Section
36.964 m², Large (>1 m²)

Expand to show TLE details & history
Last TLE update: 23 hours ago

TLE from 23 hours ago
0 STARLINK-11625
1 63109U 25039F   25304.68319237  .00296471  00000-0  22320-2 0  9991
2 63109  42.9980 294.6737 0001032 349.4094  10.6752 15.70845614 39329
Epoch: 2025-10-31T16:23Z
TLE epoch observation values (Epoch: 2025-10-31T16:23:47.820Z)
Latitude
-0.00001°
Longitude
8.50033°
Altitude
355.567 km
Speed
7.698 km/s
True Right ascension
19h 38m 41s
True Declination
0° 00' 00"
Sunlit
Object was in daylight at epoch
Visualization orbit readout
Latitude
Unknown
Longitude
Unknown
Altitude
Unknown
Speed
Unknown
Apparent Right ascension
Unknown
Apparent Declination
Unknown
Sunlit
N/A
Visualization observer readout
Local Sidereal Time
11:29:05
Azimuth
Unknown
Elevation
Unknown
Doppler factor
Unknown
Orbital elements
Apogee altitude
359.156 km
Perigee altitude
357.766 km
Semi-major axis
6,736.598 km
Eccentricity
0.0001
Inclination
42.998°
RAAN
294.6737°
Arg. of periapsis
349.4094°
True anomaly
10.67739°
Mean anomaly
10.6752°
Eccentric anomaly
10.6763°
Mean motion
3.92538 °/min
Orbital period
91.71 mins
BSTAR
0.002232
Loading maneuver chart data...
Computing Atmospheric mass density...
Loading historical data...
Loading historical data...
Loading historical data...
Loading historical data...
Loading historical data...
Loading historical data...
Loading historical data...

Documentation

Showing up to 5 results
|